OPTUS C1

Last updated on Thu Nov 21 2024 00:02:40 GMT+0000 (Coordinated Universal Time)

1 27831U 03028B 24325.63400140 -.00000149 00000+0 00000+0 0 9991 2 27831 5.4437 76.3051 0006464 167.5422 200.2827 1.00271296 47319
UTC large
Height (km)
Speed (km/s)
/
Latitude / Longitude
Inclination (degrees)
Orbital Period (minutes)
Azimuth
Elevation
Range (km)
Doppler Factor

Next 0 passes for location: London (51.5072 / 0.1276)

Sorry there are no passes over London.